Regional Weather Roundup
Issued by NWS

Home | Current Version | Previous Version | Graphics & Text | Print | Product List | Glossary On
Versions: 1 2 3 4 5 6 7 8 9 10 11 12 13 14 15 16 17 18 19 20 21 22 23 24 25 26 27
000
ASUS45 KTFX 042110
RWRMT
MONTANA REGIONAL WEATHER ROUNDUP
NATIONAL WEATHER SERVICE GREAT FALLS MT
300 PM MDT WED MAY 04 2016

NOTE: "FAIR" INDICATES FEW OR NO CLOUDS BELOW 12000 FEET WITH NO
SIGNIFICANT WEATHER AND/OR OBSTRUCTIONS TO VISIBILITY.

MTZ001>007-043-042200-
WEST OF THE DIVIDE

CITY           SKY/WX    TMP DP  RH WIND       PRES   REMARKS
KALISPELL      PTSUNNY   74  45  35 S9        29.92F
MISSOULA       PTSUNNY   73  45  36 NW5       29.96F
BUTTE          MOSUNNY   69  25  19 SW12G17   30.05F
MULLAN PASS    MOSUNNY   62  33  33 VRB3      30.07F
ANACONDA         N/A     73  27  17 S9        30.02F
DEER LODGE       N/A     73  27  17 S13G29    30.00F
EUREKA           N/A     79  37  22 SW5       29.89F
HAMILTON         N/A     75  28  17 NE5       29.95F
LIBBY            N/A     77  36  22 E5        29.90F
PLAINS           N/A     80  46  30 NE1       29.92F
$$

MTZ008-052>055-042200-
SOUTHWEST MONTANA

CITY           SKY/WX    TMP DP  RH WIND       PRES   REMARKS
BOZEMAN        SUNNY     80  28  15 SW16      29.99F
DILLON         CLOUDY    75  25  15 W17       30.05F
ENNIS          SUNNY     73  23  15 SW17G28   30.11F
TWIN BRIDGES     N/A     75  25  15 S20       30.03F
$$

MTZ009-010-012-014-046-048-049-054-042200-
EAST SLOPES AND CENTRAL MONTANA

CITY           SKY/WX    TMP DP  RH WIND       PRES   REMARKS
CUT BANK         N/A     79  33  19 W15G23    29.91F
GREAT FALLS    MOSUNNY   80  27  14 SW16G22   29.93F
MALMSTROM AFB  CLOUDY    79  28  15 SW15      29.92F
HELENA         MOSUNNY   82  29  14 SE14G24   29.94F
CHOTEAU          N/A     81  32  17 SW15      29.92F
CONRAD           N/A     82  36  19 SE10      29.94F
$$

MTZ011-013-016-021-045-047-050-051-042200-
NORTH CENTRAL MONTANA

CITY           SKY/WX    TMP DP  RH WIND       PRES   REMARKS
HAVRE          SUNNY     83  38  20 SW8       29.87F
LEWISTOWN      SUNNY     81  24  12 CALM      29.96F
N BAR RANCH    HAZE      81  25  12 W6G14     30.00F VSB 1/2
$$

MTZ017>020-022>027-061-062-042200-
NORTHEAST MONTANA

CITY           SKY/WX    TMP DP  RH WIND       PRES   REMARKS
GLASGOW        SUNNY     84  39  20 S10G21    29.89F
JORDAN           N/A     83  40  21 S13G22    29.91F
SIDNEY         SUNNY     84  39  20 S17G23    29.93F
WOLF POINT     SUNNY     86  42  21 SW14      29.89F
POPLAR           N/A     84  37  18 SW14G21   29.90F
SCOBEY           N/A     83  39  20 S12       29.91
$$

MTZ028>42-056>058-042200-
SOUTHCENTRAL AND SOUTHEAST MONTANA

CITY           SKY/WX    TMP DP  RH WIND       PRES   REMARKS
BAKER          SUNNY     79  34  19 S16G25    30.01F
BILLINGS       MOSUNNY   82  28  14 SW13      29.98F
LIVINGSTON     SUNNY     79  28  15 SW20G28   30.00F
MILES CITY     SUNNY     84  35  17 VRB7      29.94F
EKALAKA          N/A     77  34  21 SE5       30.02
FORSYTH          N/A     82  37  20 S7        29.94F
LAUREL           N/A     81  32  17 CALM      29.97F
ROUNDUP          N/A     82  30  15 SE6       29.88F
$$

REGIONAL REPORTS...DAKOTAS

CITY           SKY/WX    TMP DP  RH WIND       PRES   REMARKS
WILLISTON      SUNNY     84  39  20 SW12G20   29.93F
MINOT          SUNNY     88  37  16 SW8       29.92F
DICKINSON      SUNNY     77  36  22 S12G21    29.98F
BEACH            N/A     81  34  18 S16G28    30.01F
CROSBY           N/A     84  36  17 SW15G24   29.93F
TIOGA            N/A     82  36  18 SW20G25   29.99F
WATFORD CITY     N/A     82  37  20 S12G20    29.95F
BISMARCK       SUNNY     79  41  25 CALM      30.01F
GRAND FORKS    MOSUNNY   69  30  23 VRB5      29.99F
FARGO          SUNNY     70  30  22 MISG      30.00F
BUFFALO SD       N/A     79  37  22 SE14G23   29.98F
RAPID CITY     SUNNY     75  40  28 S12       30.08F
$$

REGIONAL REPORTS...WYOMING/IDAHO/WASHINGTON

CITY           SKY/WX    TMP DP  RH WIND       PRES   REMARKS
GILLETTE       SUNNY     76  36  23 W8        30.05F
SHERIDAN       SUNNY     79  34  19 VRB5      30.01F
BUFFALO WY     SUNNY     76  35  22 SE12G20   30.07F
CODY           CLOUDY    75  28  17 SE9G16    30.04F
YELLOWSTONE LA   N/A     61  23  23 SE9       30.26F
IDAHO FALLS    MOSUNNY   76  30  18 S14G20    30.07F
SALMON         MOSUNNY   77  30  18 S10G16    29.96F
BOISE          CLOUDY    82  33  17 SE13G24   29.89F
SPOKANE        PTSUNNY   75  44  33 CALM      29.93F
$$

REGIONAL REPORTS...ALBERTA

CITY           SKY/WX    TMP DP  RH WIND       PRES   REMARKS
EDMONTON       SUNNY     82  36  18 SW3       29.72F
CALGARY        PTSUNNY   77  30  18 VRB10G23  29.83F
LETHBRIDGE     PTSUNNY   82  32  16 W17G25    29.84F
MEDICINE HAT   PTSUNNY   86  36  16 S8G20     29.81F
$$

REGIONAL REPORTS...SASKATCHEWAN

CITY           SKY/WX    TMP DP  RH WIND       PRES   REMARKS
SWIFT CURRENT  SUNNY     86  30  13 NW16G25   29.85S
REGINA         MOSUNNY   86  32  14 W16G29    29.82F
SASKATOON      SUNNY     90  28  11 W23G31    29.73F
$$




USA.gov is the U.S. government's official web portal to all federal, state and local government web resources and services.